Details From RJOB - Okayama
To RJGG - Chubu Centrair Intl
Flight Number -
Tags Generated
Created
Modified
Stats Distance 146 nm / 271 km
Max Altitude 0 ft / 0 m
Waypoints 2
Social Downloads 0
Likes 0
Share VATSIM

Download

Looking for another format? Having issues loading an existing format? Contact us
Advertisement - Login to hide

Notes

Generated

Route

RJOB RJGG

ID Type Via Altitude Latitude Longitude Leg Dist Tot Dist Heading (true) Name
O RJOB APT - 0 ft / 0 m 34.75002˚ 133.84136˚ - 0 nm - -
O RJGG APT - 0 ft / 0 m 34.87389˚ 136.80168˚ 146 nm 146 nm 86° / 88° -

Altitude Profile

Advertisement - Login to hide

RJOB

Details ICAO RJOB (OKJ)
Name OKAYAMA
Region Japan
Timezone Asia/Tokyo (UTC+9.0)
Stats Elevation 806 ft / 246 m (AMSL)
Location 34.756937° 133.855435°
Runways 1
Magnetic Variation 7.794° W

METAR

RJOB 250300Z 17006KT 120V250 CAVOK 26/12 Q1008

Decode

TAF

TAF RJOB 242307Z 2500/2606 20006KT CAVOK BECMG 2509/2511 04004KT

Decode

Departure Runways

ID Width Length Bearing (true) Bearing (mag) Surface Threshold Offset Overrun Length
07 150 ft / 46 m 9,835 ft / 2,998 m 59.10° 66.89° Asphalt 0 ft / 0 m 200 ft / 61 m
25 150 ft / 46 m 9,835 ft / 2,998 m 239.12° 246.91° Asphalt 0 ft / 0 m 200 ft / 61 m

RJGG

Details ICAO RJGG (NGO)
Name CHUBU CENTRAIR INTL
Region Japan
Timezone Asia/Tokyo (UTC+9.0)
Stats Elevation 15 ft / 5 m (AMSL)
Location 34.858414° 136.805408°
Runways 1
Magnetic Variation 7.610° W

METAR

RJGG 250300Z 22003KT CAVOK 22/14 Q1008 NOSIG

Decode

TAF

TAF RJGG 242305Z 2500/2606 34006KT 9999 FEW030 BECMG 2501/2503 18010KT BECMG 2512/2515 34006KT BECMG 2600/2603 16012KT

Decode

Destination Runways

ID Width Length Bearing (true) Bearing (mag) Surface Threshold Offset Overrun Length
18 197 ft / 60 m 11,511 ft / 3,509 m 168.81° 176.42° Asphalt 0 ft / 0 m 197 ft / 60 m
36 197 ft / 60 m 11,511 ft / 3,509 m 348.81° 356.42° Asphalt 0 ft / 0 m 197 ft / 60 m

Approach Navaids

Runway Type Ident Frequency Range Bearing (true) Bearing (mag) Slope Elevation
18 Localiser ICY 109.70 MHz 25 nm / 46 km 168.79° 176.40° - 12 ft / 4 m (AMSL)
18 Glidescope ICY 109.70 MHz 25 nm / 46 km 176.00° 183.61° 3.00° 12 ft / 4 m (AMSL)
36 Localiser ICX 111.90 MHz 25 nm / 46 km 348.79° 356.40° - 12 ft / 4 m (AMSL)
36 Glidescope ICX 111.90 MHz 25 nm / 46 km 356.00° 3.61° 3.00° 12 ft / 4 m (AMSL)